Overview Statistics Trail Chart Weather Telemetry Raw packets
 

This is the latest recevied weather packets stored in our database for station/object SV9TNF-56. If no packets are shown the sender has not sent any weather packets the latest 10 day(s).

<< 57 58 59 60 61 62 63 >>
Time Temp. Humidity Pressure Rain* Wind** Luminosity Snow
1788275600 25.56° C 69% 1010.8 hPa 0 mm 12.96 m/s, 52° - -
1788275300 25.56° C 69% 1010.8 hPa 0 mm 21.01 m/s, 61° - -
1788275000 25.56° C 68% 1010.8 hPa 0 mm 15.2 m/s, 70° - -
1788274700 25.56° C 65% 1010.5 hPa 0 mm 23.25 m/s, 122° - -
1788274399 25.56° C 62% 1010.8 hPa 0 mm 14.75 m/s, 115° - -
1788274100 25.56° C 63% 1010.5 hPa 0 mm 11.18 m/s, 156° - -
1788273799 25.56° C 64% 1010.5 hPa 0 mm 22.8 m/s, 133° - -
1788273499 25.56° C 64% 1010.5 hPa 0 mm 19.22 m/s, 130° - -
1788273199 25.56° C 65% 1010.5 hPa 0 mm 24.59 m/s, 92° - -
1788272899 25.56° C 65% 1010.8 hPa 0 mm 16.09 m/s, 67° - -
1788272599 25.56° C 65% 1010.5 hPa 0 mm 8.49 m/s, 70° - -
1788272299 25.56° C 58% 1010.8 hPa 0 mm 24.59 m/s, 132° - -
1788271999 26.11° C 58% 1010.8 hPa 0 mm 16.99 m/s, 59° - -
1788271699 26.11° C 61% 1010.8 hPa 0 mm 15.2 m/s, 120° - -
1788271399 26.11° C 60% 1010.8 hPa 0 mm 19.22 m/s, 151° - -
1788271098 26.11° C 57% 1010.8 hPa 0 mm 14.75 m/s, 124° - -
1788270799 26.11° C 56% 1010.8 hPa 0 mm 22.35 m/s, 85° - -
1788270498 26.11° C 61% 1010.8 hPa 0 mm 16.99 m/s, 140° - -
1788270199 26.11° C 64% 1010.8 hPa 0 mm 12.96 m/s, 95° - -
1788269898 26.67° C 60% 1010.8 hPa 0 mm 6.26 m/s, 150° - -
1788269598 26.67° C 58% 1010.5 hPa 0 mm 6.26 m/s, 145° - -
1788269298 26.67° C 53% 1010.8 hPa 0 mm 7.15 m/s, 222° - -
1788268998 26.67° C 56% 1010.5 hPa 0 mm 12.96 m/s, 144° - -
1788268698 26.11° C 60% 1010.8 hPa 0 mm 15.2 m/s, 200° - -
1788268397 26.11° C 60% 1010.8 hPa 0 mm 12.52 m/s, 104° - -

* Rain latest hour (hover to see other rain measurements)
** Current wind speed in m/s (hover to see current wind gust speed)